Flag for Ireland Weather past 2 weeks in Dublin, Ireland

Now
55 °F

Sprinkles. Partly cloudy.


Feels Like: 50 °F
Forecast: 42 / 56 °F
Wind: 24 mph from Southwest

Location: Dublin Airport

Current Time: Oct 21, 2014 at 1:58:31 AM

Latest Report: Oct 21, 2014 at 1:30 AM


Visibility: N/A

Pressure: 29.39 "Hg

Humidity: 88%

Dew point: 52 °F

Location of DublinLocation

Historic Weather in Dublin — Graph

°F

Dublin temperature yesterday

Maximum temperature yesterday: 57 °F (at 3:30 PM)
Minimum temperature yesterday: 50 °F (at 7:00 AM)
Average temperature yesterday: 54 °F

Past Weeks' High & Low Weather Summary

 TemperatureHumidityPressure
High64 °F (Oct 18, 1:30 PM)100% (Oct 6, 4:30 AM)29.92 "Hg (Oct 6, 4:30 AM)
Low34 °F (Oct 12, 6:00 AM)55% (Oct 6, 2:30 PM)29.03 "Hg (Oct 9, 5:00 AM)
Average52 °F85%29.56 "Hg
* Reported Midnight between Oct 5 and Oct 6 — Oct 21 12:30 AM, Dublin, Weather by CustomWeather, © 2014

Note: Actual official high and low records may vary slightly from our data, if they occured in-between our weather recording intervals... More about our weather records

Advertising

Dublin weather history for previous 24 hours

 ConditionsComfort  
Time TempWeatherWind HumidityBarometerVisibility
12:30 AM
Oct 21
55 °FPartly cloudy.24 mph88%29.42 "HgN/A
12:00 AM54 °FPassing clouds.22 mph94%29.45 "HgN/A
11:30 PM
Oct 20
54 °FLight rain. Partly cloudy.22 mph88%29.50 "HgN/A
11:00 PM55 °FPartly cloudy.18 mph82%29.50 "HgN/A
10:30 PM55 °FPartly cloudy.22 mph82%29.53 "HgN/A
10:00 PM55 °FPartly cloudy.18 mph82%29.56 "HgN/A
9:30 PM55 °FPartly cloudy.21 mph82%29.59 "HgN/A
9:00 PM55 °FPartly cloudy.16 mph82%29.62 "HgN/A
8:30 PM57 °FPartly cloudy.18 mph77%29.65 "HgN/A
8:00 PM55 °FPartly cloudy.18 mph82%29.65 "HgN/A
7:30 PM55 °FPassing clouds.16 mph82%29.68 "HgN/A
7:00 PM55 °FPartly sunny.15 mph82%29.71 "HgN/A
6:30 PM55 °FPartly sunny.15 mph82%29.71 "HgN/A
6:00 PM57 °FPartly sunny.15 mph77%29.74 "HgN/A
5:30 PM55 °FBroken clouds.14 mph82%29.74 "HgN/A
5:00 PM57 °FBroken clouds.13 mph77%29.77 "HgN/A
4:30 PM57 °FBroken clouds.14 mph72%29.77 "HgN/A
4:00 PM57 °FBroken clouds.15 mph77%29.80 "HgN/A
3:30 PM57 °FBroken clouds.15 mph77%29.80 "HgN/A
3:00 PM55 °FBroken clouds.17 mph77%29.80 "HgN/A
2:30 PM55 °FBroken clouds.15 mph77%29.83 "HgN/A
2:00 PM55 °FBroken clouds.15 mph77%29.86 "HgN/A
1:30 PM55 °FBroken clouds.15 mph77%29.86 "HgN/A
1:00 PM55 °FPartly sunny.17 mph77%29.86 "HgN/A
12:30 PM54 °FBroken clouds.14 mph82%29.89 "HgN/A
12:00 PM54 °FBroken clouds.16 mph82%29.89 "HgN/A
11:30 AM54 °FBroken clouds.17 mph82%29.89 "HgN/A
11:00 AM54 °FBroken clouds.16 mph82%29.89 "HgN/A
10:30 AM52 °FPartly sunny.16 mph88%29.89 "HgN/A
10:00 AM52 °FBroken clouds.16 mph88%29.89 "HgN/A
9:30 AM52 °FBroken clouds.16 mph88%29.89 "HgN/A
9:00 AM52 °FBroken clouds.14 mph88%29.89 "HgN/A
8:30 AM50 °FPartly cloudy.12 mph94%29.89 "HgN/A
8:00 AM50 °FPartly cloudy.13 mph94%29.89 "HgN/A
7:30 AM50 °FPassing clouds.13 mph94%29.89 "HgN/A
7:00 AM50 °FSprinkles. Passing clouds.13 mph94%29.89 "HgN/A
6:30 AM52 °FSprinkles. Partly cloudy.16 mph88%29.89 "HgN/A
6:00 AM52 °FPassing clouds.15 mph88%29.86 "HgN/A
4:00 AM52 °FPartly cloudy.13 mph88%29.89 "HgN/A
3:30 AM52 °FPartly cloudy.10 mph88%29.89 "HgN/A
3:00 AM52 °FPassing clouds.13 mph88%29.89 "HgN/A
2:30 AM52 °FPartly cloudy.10 mph94%29.89 "HgN/A
2:00 AM52 °FSprinkles. Partly cloudy.10 mph94%29.92 "Hg3 mi
1:30 AM52 °FPartly cloudy.15 mph94%29.92 "HgN/A
1:00 AM52 °FPartly cloudy.14 mph88%29.89 "HgN/A
Weather by CustomWeather, © 2014

See weather overviewHow to use our weather pages